Location: Anglesey
(53.1800°N, 4.2200°W)
Time: 11:02:30
(UTC+00:00)

Envisat - Pass Details

Date: 10 October 2017
Orbit: 764 x 766 km, 98.2° (Epoch: 18 December)

Event Time Altitude Azimuth Distance (km) Brightness Sun altitude
Exits shadow 19:26:52 - 113° (ESE) 2,385 5.0 -9.0°
Reaches altitude 10° 19:27:06 10° 111° (ESE) 2,306 4.9 -9.0°
Maximum altitude 19:31:11 25° 58° (ENE) 1,522 4.1 -9.6°
Drops below altitude 10° 19:35:16 10° 4° (N) 2,319 5.5 -10.3°
Sets 19:37:55 0° 352° (N) 3,250 6.4 -10.7°
